(293671) = 2006 DJ167 = 2007 PX22

Discovered at Socorro on 2007-08-11 by LINEAR.

Orbit

Orbit type: Main Belt

Note: WebGL enabled browser required.

epoch2023-02-25.0
epoch JD2460000.5
perihelion date2020-11-16.55238
perihelion JD2459170.05238
argument of perihelion (°)276.20290
ascending node (°)52.89425
inclination (°)4.11910
eccentricity0.2330595
perihelion distance (AU)1.7145909
Tisserand w.r.t. Jupiter3.6
ΔV w.r.t. Earth (km/sec)8.2
semimajor axis (AU)2.2356243
mean anomaly (°)244.86000
mean daily motion (°/day)0.29485300
aphelion distance (AU)2.757
period (years)3.34
P-vector [x]0.85599136
P-vector [y]-0.44137762
P-vector [z]-0.26919248
Q-vector [x]0.51380649
Q-vector [y]0.78399403
Q-vector [z]0.34836224
absolute magnitude17.39
phase slope0.15
uncertainty0
referenceMPO 745323
observations used384
oppositions14
arc length (days)7825
first opposition used2001
last opposition used2023
residual rms (arc-secs)0.75
perturbers coarse indicatorM-v
perturbers precise indicator003Ek
first observation date used2001-12-21.0
last observation date used2023-05-25.0
computer nameMPCLINUX
JD of orbit computation2456966.704961
perihelion JD uncertainty (days)4.2719E-05
argument of perihelion uncertainty (°)7.0067E-05
ascending node uncertainty (°)6.8711E-05
inclination uncertainty (°)5.4222E-06
eccentricity uncertainty 6.5959E-08
perihelion distance uncertainty (AU)1.6281E-07
Minimum Orbit Intersection Distances (in AU)
for orbit epoch: 2460000.5, reference: E2023-KF3
Mercury1.30275
Venus0.98675
Earth0.70834
Mars0.33749
Jupiter2.59561
Saturn6.46151
Uranus15.7061
Neptune27.6412

Observations

395 total observations over interval: 2001 12 21.35590 – 2023 05 25.297885
These data are available for download (format description).

Date (UT) J2000 RA J2000 Dec Magn Location Ref
2001 12 21.35590 08 28 03.85 +24 31 50.6 22.8 V 691 – Steward Observatory, Kitt Peak-Spacewatch MPS 216293
2001 12 21.36050 08 28 03.63 +24 31 50.9 22.1 V 691 – Steward Observatory, Kitt Peak-Spacewatch MPS 216293
2001 12 21.36582 08 28 03.35 +24 31 53.3 22.1 V 691 – Steward Observatory, Kitt Peak-Spacewatch MPS 216293
2002 01 14.215570 08 03 40.050 +26 23 16.97 20.97 V 645 – Apache Point-Sloan Digital Sky Survey MPS 216293
2002 01 14.219042 08 03 39.793 +26 23 17.92 21.88   645 – Apache Point-Sloan Digital Sky Survey MPS 216293
2006 02 27.32896 12 03 43.35 +05 42 32.0 21.2 V 691 – Steward Observatory, Kitt Peak-Spacewatch MPS 166343
2006 02 27.34627 12 03 42.50 +05 42 38.2 21.1 V 691 – Steward Observatory, Kitt Peak-Spacewatch MPS 166343
2006 02 27.36359 12 03 41.60 +05 42 44.3 21.0 V 691 – Steward Observatory, Kitt Peak-Spacewatch MPS 166343
2006 03 03.32991 12 00 16.69 +06 06 15.8   691 – Steward Observatory, Kitt Peak-Spacewatch MPS 166343
2006 03 03.34723 12 00 15.75 +06 06 21.4   691 – Steward Observatory, Kitt Peak-Spacewatch MPS 166343
2006 03 03.36456 12 00 14.76 +06 06 28.0   691 – Steward Observatory, Kitt Peak-Spacewatch MPS 166343
2006 03 04.33281 11 59 22.38 +06 12 18.3 20.3 V G96 – Mt. Lemmon Survey MPS 216293
2006 03 04.34023 11 59 21.94 +06 12 21.7 20.9 V G96 – Mt. Lemmon Survey MPS 216293
2006 03 04.34747 11 59 21.51 +06 12 24.6 21.0 V G96 – Mt. Lemmon Survey MPS 216293
2006 03 04.35459 11 59 21.08 +06 12 27.0 21.3 V G96 – Mt. Lemmon Survey MPS 216293
2007 08 11.34181 01 12 25.09 +00 24 08.4 19.9   704 – Lincoln Laboratory ETS, New Mexico MPS 213203
2007 08 11.35349 01 12 25.51 +00 24 10.0 19.4   704 – Lincoln Laboratory ETS, New Mexico MPS 213203
2007 08 11.37674 01 12 26.48 +00 24 14.1 19.2   704 – Lincoln Laboratory ETS, New Mexico MPS 213203
2007 08 12.38561 01 13 08.34 +00 27 03.8 19.0   704 – Lincoln Laboratory ETS, New Mexico MPS 213203
2007 08 12.39753 01 13 08.83 +00 27 05.5 19.4   704 – Lincoln Laboratory ETS, New Mexico MPS 213203
2007 08 12.40943 01 13 09.24 +00 27 07.9 19.6   704 – Lincoln Laboratory ETS, New Mexico MPS 213203
2007 08 12.43319 01 13 10.23 +00 27 11.3 19.8   704 – Lincoln Laboratory ETS, New Mexico MPS 213203
2007 09 08.41222 01 17 17.29 +00 36 14.5 18.6 R 699 – Lowell Observatory-LONEOS MPS 216293
2007 09 08.43411 01 17 16.75 +00 36 12.1   699 – Lowell Observatory-LONEOS MPS 216293
2007 09 08.45599 01 17 16.17 +00 36 09.7   699 – Lowell Observatory-LONEOS MPS 216293
2007 09 08.47791 01 17 15.57 +00 36 07.9   699 – Lowell Observatory-LONEOS MPS 216293
2007 09 10.39480 01 16 26.90 +00 32 28.5 19.2 V 691 – Steward Observatory, Kitt Peak-Spacewatch MPS 216293
2007 09 10.41238 01 16 26.36 +00 32 26.7 19.1 V 691 – Steward Observatory, Kitt Peak-Spacewatch MPS 216293
2007 09 10.42997 01 16 25.80 +00 32 24.4 19.2 V 691 – Steward Observatory, Kitt Peak-Spacewatch MPS 216293
2007 09 14.42146 01 14 17.72 +00 23 31.5 18.4 R 699 – Lowell Observatory-LONEOS MPS 216293
2007 09 14.44703 01 14 16.73 +00 23 28.0   699 – Lowell Observatory-LONEOS MPS 216293
2007 09 14.47263 01 14 15.77 +00 23 23.5   699 – Lowell Observatory-LONEOS MPS 216293
2007 09 15.29444 01 13 45.69 +00 21 25.4 18.6   704 – Lincoln Laboratory ETS, New Mexico MPS 216293
2007 09 15.30598 01 13 45.24 +00 21 22.8 18.6   704 – Lincoln Laboratory ETS, New Mexico MPS 216293
2007 09 15.31758 01 13 44.75 +00 21 21.5 18.3   704 – Lincoln Laboratory ETS, New Mexico MPS 216293
2007 09 18.24188 01 11 45.65 +00 13 50.6 18.2   704 – Lincoln Laboratory ETS, New Mexico MPS 216293
2007 09 18.25363 01 11 45.08 +00 13 48.9 18.3   704 – Lincoln Laboratory ETS, New Mexico MPS 216293
2007 09 18.26536 01 11 44.55 +00 13 46.8 19.0   704 – Lincoln Laboratory ETS, New Mexico MPS 216293
2007 09 18.27710 01 11 43.99 +00 13 44.4 18.5   704 – Lincoln Laboratory ETS, New Mexico MPS 216293
2007 09 18.28882 01 11 43.42 +00 13 42.7 18.8   704 – Lincoln Laboratory ETS, New Mexico MPS 216293
2007 09 21.28457 01 09 25.59 +00 05 37.4 19.0   704 – Lincoln Laboratory ETS, New Mexico MPS 217769
2007 09 21.29674 01 09 25.07 +00 05 35.2 19.0   704 – Lincoln Laboratory ETS, New Mexico MPS 217769
2007 09 21.30889 01 09 24.37 +00 05 33.1 19.3   704 – Lincoln Laboratory ETS, New Mexico MPS 217769
2007 09 21.32109 01 09 23.76 +00 05 30.7 19.1   704 – Lincoln Laboratory ETS, New Mexico MPS 217769
2007 09 21.33334 01 09 23.12 +00 05 27.9 19.2   704 – Lincoln Laboratory ETS, New Mexico MPS 217769
2007 10 07.21105 00 54 36.88 -00 35 06.5 18.3   704 – Lincoln Laboratory ETS, New Mexico MPS 218756
2007 10 07.22201 00 54 36.19 -00 35 07.5 18.3   704 – Lincoln Laboratory ETS, New Mexico MPS 218756
2007 10 07.23299 00 54 35.58 -00 35 09.5 18.5   704 – Lincoln Laboratory ETS, New Mexico MPS 218756
2007 10 07.24396 00 54 34.90 -00 35 10.4 18.6   704 – Lincoln Laboratory ETS, New Mexico MPS 218756
2007 10 07.31222 00 54 30.69 -00 35 19.2 18.5 r 699 – Lowell Observatory-LONEOS MPS 255245
2007 10 07.33781 00 54 29.06 -00 35 23.1   699 – Lowell Observatory-LONEOS MPS 255245
2007 10 07.36337 00 54 27.51 -00 35 25.6   699 – Lowell Observatory-LONEOS MPS 255245
2007 10 07.38894 00 54 25.97 -00 35 29.9   699 – Lowell Observatory-LONEOS MPS 255245
2007 10 11.23288 00 50 43.44 -00 42 04.0 18.6 V 703 – Catalina Sky Survey MPS 220612
2007 10 11.24079 00 50 42.93 -00 42 04.8 18.5 V 703 – Catalina Sky Survey MPS 220612
2007 10 11.24847 00 50 42.54 -00 42 05.2 18.5 V 703 – Catalina Sky Survey MPS 220612
2007 10 11.25559 00 50 42.07 -00 42 05.5 18.7 V 703 – Catalina Sky Survey MPS 220612
2007 10 13.19894 00 48 52.97 -00 44 38.4 18.5   704 – Lincoln Laboratory ETS, New Mexico MPS 220612
2007 10 13.21009 00 48 52.33 -00 44 39.0 19.0   704 – Lincoln Laboratory ETS, New Mexico MPS 220612
2007 10 13.22125 00 48 51.66 -00 44 39.5 18.9   704 – Lincoln Laboratory ETS, New Mexico MPS 220612
2007 10 13.23239 00 48 51.02 -00 44 40.6 18.9   704 – Lincoln Laboratory ETS, New Mexico MPS 220612
2007 10 13.24352 00 48 50.42 -00 44 41.9 19.2   704 – Lincoln Laboratory ETS, New Mexico MPS 220612
2007 10 16.28505 00 46 06.60 -00 47 23.5 18.7 V G96 – Mt. Lemmon Survey MPS 220612
2007 10 16.29444 00 46 06.06 -00 47 23.5 18.7 V G96 – Mt. Lemmon Survey MPS 220612
2007 10 16.30397 00 46 05.55 -00 47 23.9 18.8 V G96 – Mt. Lemmon Survey MPS 220612
2007 10 16.31340 00 46 05.01 -00 47 24.2 18.7 V G96 – Mt. Lemmon Survey MPS 220612
2007 10 17.16082 00 45 21.86 -00 47 52.0 18.6 r 699 – Lowell Observatory-LONEOS MPS 220612
2007 10 17.18370 00 45 20.57 -00 47 52.9 18.9 r 699 – Lowell Observatory-LONEOS MPS 220612
2007 10 17.20652 00 45 19.36 -00 47 54.0 18.8 r 699 – Lowell Observatory-LONEOS MPS 220612
2007 10 18.25916 00 44 26.17 -00 48 15.9 19.1   704 – Lincoln Laboratory ETS, New Mexico MPS 220612
2007 10 18.27063 00 44 25.53 -00 48 15.8 19.4   704 – Lincoln Laboratory ETS, New Mexico MPS 220612
2007 10 18.28208 00 44 24.90 -00 48 15.0 19.5   704 – Lincoln Laboratory ETS, New Mexico MPS 220612
2007 10 18.29355 00 44 24.36 -00 48 16.5 19.5   704 – Lincoln Laboratory ETS, New Mexico MPS 220612
2007 10 18.30501 00 44 23.73 -00 48 16.6 19.4   704 – Lincoln Laboratory ETS, New Mexico MPS 220612
2007 10 19.25338 00 43 37.63 -00 48 28.1 18.0 V 703 – Catalina Sky Survey MPS 222562
2007 10 19.25995 00 43 37.38 -00 48 25.4 18.2 V 703 – Catalina Sky Survey MPS 222562
2007 10 19.26654 00 43 36.98 -00 48 24.4 18.4 V 703 – Catalina Sky Survey MPS 222562
2007 11 02.18001 00 35 12.26 -00 30 32.4 19.3 V G96 – Mt. Lemmon Survey MPS 224948
2007 11 02.18839 00 35 12.04 -00 30 31.1 18.7 V G96 – Mt. Lemmon Survey MPS 224948
2007 11 02.19673 00 35 11.83 -00 30 29.8 18.7 V G96 – Mt. Lemmon Survey MPS 224948
2007 11 02.20504 00 35 11.61 -00 30 28.4 18.9 V G96 – Mt. Lemmon Survey MPS 224948
2007 11 02.23071 00 35 10.79 -00 30 23.9 18.8 r 699 – Lowell Observatory-LONEOS MPS 224948
2007 11 02.25210 00 35 10.36 -00 30 21.1 19.1 r 699 – Lowell Observatory-LONEOS MPS 224948
2007 11 02.27350 00 35 09.78 -00 30 17.2 19.1 r 699 – Lowell Observatory-LONEOS MPS 224948
2007 11 02.29488 00 35 09.25 -00 30 14.9 19.5 r 699 – Lowell Observatory-LONEOS MPS 224948
2007 11 04.19721 00 34 29.84 -00 24 46.9 19.6   704 – Lincoln Laboratory ETS, New Mexico MPS 224948
